EN

Hourly Weather Godzhur

Today, 16 May, Sunday

Time Temperature Precipitation Wind Pressure Humidity
00:00 +19°C° 0 mm 4 mps 754 mmHg 42%
01:00 +19°C° 0 mm 4 mps 754 mmHg 44%
02:00 +18°C° 0 mm 4 mps 754 mmHg 46%
03:00 +18°C° 0 mm 4 mps 754 mmHg 48%
04:00 +18°C° 0 mm 3 mps 754 mmHg 49%
05:00 +19°C° 0 mm 3 mps 754 mmHg 49%
06:00 +19°C° 0 mm 3 mps 753 mmHg 49%
07:00 +21°C° 0 mm 4 mps 753 mmHg 43%
08:00 +25°C° 0 mm 5 mps 753 mmHg 37%
09:00 +28°C° 0 mm 6 mps 753 mmHg 31%
10:00 +29°C° 0 mm 7 mps 753 mmHg 27%
11:00 +32°C° 0 mm 8 mps 753 mmHg 23%
12:00 +34°C° 0 mm 9 mps 752 mmHg 19%
13:00 +34°C° 0 mm 9 mps 752 mmHg 18%
14:00 +35°C° 0 mm 9 mps 752 mmHg 18%
15:00 +35°C° 0 mm 9 mps 751 mmHg 17%
16:00 +34°C° 0 mm 9 mps 751 mmHg 20%
17:00 +32°C° 0 mm 9 mps 751 mmHg 23%
18:00 +31°C° 0 mm 8 mps 751 mmHg 26%
19:00 +28°C° 0 mm 8 mps 751 mmHg 28%
20:00 +27°C° 0 mm 8 mps 751 mmHg 29%
21:00 +24°C° 0 mm 7 mps 751 mmHg 31%
22:00 +23°C° 0 mm 7 mps 751 mmHg 31%
23:00 +22°C° 0 mm 7 mps 751 mmHg 31%

Tomorrow, 17 May, Monday

Time Temperature Precipitation Wind Pressure Humidity
00:00 +22°C° 0 mm 7 mps 751 mmHg 32%
01:00 +21°C° 0 mm 6 mps 751 mmHg 34%
02:00 +20°C° 0 mm 6 mps 750 mmHg 36%
03:00 +20°C° 0 mm 6 mps 750 mmHg 39%
04:00 +20°C° 0 mm 6 mps 750 mmHg 40%
05:00 +20°C° 0 mm 6 mps 750 mmHg 42%
06:00 +20°C° 0 mm 6 mps 750 mmHg 43%
07:00 +23°C° 0 mm 7 mps 750 mmHg 38%
08:00 +26°C° 0 mm 8 mps 751 mmHg 33%
09:00 +29°C° 0 mm 9 mps 751 mmHg 28%
10:00 +31°C° 0 mm 9 mps 751 mmHg 24%
11:00 +33°C° 0 mm 10 mps 750 mmHg 20%
12:00 +34°C° 0 mm 11 mps 750 mmHg 16%
13:00 +34°C° 0 mm 11 mps 750 mmHg 16%
14:00 +34°C° 0 mm 10 mps 750 mmHg 16%
15:00 +36°C° 0 mm 10 mps 750 mmHg 16%
16:00 +33°C° 0 mm 9 mps 750 mmHg 18%
17:00 +32°C° 0 mm 9 mps 750 mmHg 20%
18:00 +31°C° 0 mm 8 mps 750 mmHg 22%
19:00 +28°C° 0 mm 7 mps 750 mmHg 24%
20:00 +26°C° 0 mm 6 mps 750 mmHg 27%
21:00 +23°C° 0 mm 5 mps 751 mmHg 29%
22:00 +22°C° 0 mm 5 mps 750 mmHg 30%
23:00 +21°C° 0 mm 4 mps 750 mmHg 31%

Day after tomorrow, 18 May, Tuesday

Time Temperature Precipitation Wind Pressure Humidity
00:00 +21°C° 0 mm 4 mps 749 mmHg 32%
01:00 +20°C° 0 mm 4 mps 749 mmHg 34%
02:00 +19°C° 0 mm 4 mps 749 mmHg 35%
03:00 +19°C° 0 mm 3 mps 749 mmHg 36%
04:00 +19°C° 0 mm 3 mps 749 mmHg 38%
05:00 +20°C° 0 mm 2 mps 749 mmHg 40%
06:00 +20°C° 0 mm 2 mps 749 mmHg 41%
07:00 +23°C° 0 mm 2 mps 749 mmHg 38%
08:00 +25°C° 0 mm 2 mps 749 mmHg 35%
09:00 +26°C° 0 mm 3 mps 749 mmHg 32%
10:00 +28°C° 0 mm 4 mps 749 mmHg 30%
11:00 +29°C° 0 mm 4 mps 749 mmHg 27%
12:00 +32°C° 0 mm 5 mps 749 mmHg 24%
13:00 +32°C° 0 mm 5 mps 748 mmHg 25%
14:00 +32°C° 0 mm 5 mps 748 mmHg 26%
15:00 +32°C° 0 mm 4 mps 748 mmHg 26%
16:00 +29°C° 0 mm 5 mps 748 mmHg 35%
17:00 +28°C° 0 mm 6 mps 748 mmHg 44%
18:00 +27°C° 0 mm 7 mps 749 mmHg 52%
19:00 +24°C° 0.1 mm 7 mps 749 mmHg 62%
20:00 +22°C° 0.1 mm 7 mps 750 mmHg 71%
21:00 +20°C° 0.1 mm 7 mps 751 mmHg 80%
22:00 +18°C° 0.7 mm 7 mps 751 mmHg 81%
23:00 +19°C° 0.7 mm 6 mps 751 mmHg 81%

19 May, Wednesday

Time Temperature Precipitation Wind Pressure Humidity
00:00 +17°C° 0.7 mm 6 mps 751 mmHg 82%
01:00 +16°C° 0 mm 5 mps 751 mmHg 83%
02:00 +17°C° 0 mm 4 mps 751 mmHg 85%
03:00 +15°C° 0 mm 4 mps 752 mmHg 86%
04:00 +17°C° 0 mm 4 mps 752 mmHg 85%
05:00 +17°C° 0 mm 4 mps 752 mmHg 84%
06:00 +17°C° 0 mm 4 mps 752 mmHg 82%
07:00 +19°C° 0 mm 4 mps 753 mmHg 74%
08:00 +20°C° 0 mm 5 mps 753 mmHg 67%
09:00 +22°C° 0 mm 6 mps 753 mmHg 59%
10:00 +22°C° 0 mm 6 mps 754 mmHg 56%
11:00 +22°C° 0 mm 6 mps 754 mmHg 54%
12:00 +23°C° 0 mm 7 mps 754 mmHg 51%
13:00 +23°C° 0 mm 7 mps 754 mmHg 48%
14:00 +24°C° 0 mm 6 mps 754 mmHg 45%
15:00 +24°C° 0 mm 6 mps 754 mmHg 41%
16:00 +24°C° 0 mm 6 mps 754 mmHg 42%
17:00 +23°C° 0 mm 6 mps 754 mmHg 43%
18:00 +23°C° 0 mm 6 mps 755 mmHg 44%
19:00 +21°C° 0 mm 6 mps 755 mmHg 53%
20:00 +19°C° 0 mm 5 mps 755 mmHg 62%
21:00 +18°C° 0 mm 4 mps 756 mmHg 71%
22:00 +17°C° 0 mm 4 mps 756 mmHg 73%
23:00 +16°C° 0 mm 3 mps 756 mmHg 76%

20 May, Thursday

Time Temperature Precipitation Wind Pressure Humidity
00:00 +16°C° 0 mm 3 mps 756 mmHg 79%
01:00 +14°C° 0 mm 3 mps 756 mmHg 80%
02:00 +14°C° 0 mm 3 mps 756 mmHg 80%
03:00 +14°C° 0 mm 2 mps 757 mmHg 81%
04:00 +15°C° 0 mm 2 mps 757 mmHg 79%
05:00 +16°C° 0 mm 1 mps 757 mmHg 76%
06:00 +16°C° 0 mm 1 mps 757 mmHg 74%
07:00 +18°C° 0 mm 2 mps 757 mmHg 66%
08:00 +20°C° 0 mm 2 mps 757 mmHg 57%
09:00 +21°C° 0 mm 3 mps 757 mmHg 49%
10:00 +22°C° 0 mm 3 mps 757 mmHg 44%
11:00 +25°C° 0 mm 2 mps 756 mmHg 39%
12:00 +26°C° 0 mm 2 mps 756 mmHg 34%
13:00 +26°C° 0 mm 3 mps 756 mmHg 33%
14:00 +27°C° 0 mm 3 mps 756 mmHg 33%
15:00 +28°C° 0 mm 3 mps 756 mmHg 32%
16:00 +28°C° 0 mm 3 mps 755 mmHg 34%
17:00 +27°C° 0 mm 3 mps 755 mmHg 35%
18:00 +27°C° 0 mm 3 mps 755 mmHg 37%
19:00 +26°C° 0 mm 3 mps 755 mmHg 39%
20:00 +23°C° 0 mm 4 mps 755 mmHg 40%
21:00 +22°C° 0 mm 4 mps 754 mmHg 42%
22:00 +21°C° 0 mm 4 mps 754 mmHg 42%
23:00 +21°C° 0 mm 4 mps 754 mmHg 43%

21 May, Friday

Time Temperature Precipitation Wind Pressure Humidity
00:00 +20°C° 0 mm 4 mps 754 mmHg 43%
01:00 +20°C° 0 mm 4 mps 754 mmHg 44%
02:00 +19°C° 0 mm 4 mps 754 mmHg 45%
03:00 +19°C° 0 mm 4 mps 754 mmHg 46%
04:00 +19°C° 0 mm 5 mps 753 mmHg 46%
05:00 +20°C° 0 mm 5 mps 753 mmHg 47%
06:00 +20°C° 0 mm 6 mps 753 mmHg 47%
07:00 +22°C° 0 mm 6 mps 753 mmHg 45%
08:00 +26°C° 0 mm 7 mps 753 mmHg 42%
09:00 +28°C° 0 mm 7 mps 753 mmHg 39%
10:00 +31°C° 0 mm 8 mps 753 mmHg 35%
11:00 +33°C° 0 mm 8 mps 753 mmHg 31%
12:00 +35°C° 0 mm 8 mps 753 mmHg 27%
13:00 +35°C° 0 mm 8 mps 752 mmHg 26%
14:00 +37°C° 0 mm 8 mps 752 mmHg 25%
15:00 +38°C° 0 mm 8 mps 752 mmHg 24%
16:00 +36°C° 0 mm 7 mps 752 mmHg 27%
17:00 +35°C° 0 mm 7 mps 753 mmHg 29%
18:00 +34°C° 0 mm 7 mps 753 mmHg 31%
19:00 +32°C° 0 mm 6 mps 753 mmHg 35%
20:00 +29°C° 0 mm 5 mps 754 mmHg 38%
21:00 +26°C° 0 mm 5 mps 754 mmHg 42%
22:00 +25°C° 0 mm 5 mps 754 mmHg 45%
23:00 +23°C° 0 mm 4 mps 754 mmHg 48%
Show more